SWA2583 KDEN-KBZN

Flight info

Callsign SWA2583
Flight time 1h 19m
Altitude 32000
Route DDRTH1 DDRTH TOCUD LOSST1
Aircraft B38M/M-SADE2E3GHIJ4J7P2RWZ/LB1D1

Departure

Time 2026-05-05 00:45
Airport Denver International Airport (KDEN)

Arrival

Time 2026-05-05 02:05
Airport Bozeman Yellowstone International Airport (KBZN)
Time Latitude Longitude Altitude Speed Heading
2026-05-05 00:18 39.86367 -104.67306 5362 ft 0 kts 180°
2026-05-05 00:33 39.86375 -104.67306 5365 ft 3 kts 180°
2026-05-05 00:33 39.86395 -104.67306 5364 ft 3 kts 180°
2026-05-05 00:34 39.86415 -104.67306 5363 ft 3 kts 180°
2026-05-05 00:34 39.86435 -104.67305 5363 ft 2 kts 180°
2026-05-05 00:34 39.86438 -104.67305 5362 ft 0 kts 180°
2026-05-05 00:39 39.86425 -104.67317 5365 ft 9 kts 225°
2026-05-05 00:39 39.86416 -104.67470 5365 ft 25 kts 271°
2026-05-05 00:39 39.86417 -104.67766 5365 ft 40 kts 270°
2026-05-05 00:39 39.86419 -104.67987 5364 ft 27 kts 272°
2026-05-05 00:40 39.86431 -104.68263 5365 ft 34 kts 270°
2026-05-05 00:40 39.86272 -104.68389 5364 ft 36 kts 179°
2026-05-05 00:40 39.85992 -104.68388 5363 ft 43 kts 180°
2026-05-05 00:40 39.85773 -104.68392 5364 ft 20 kts 182°
2026-05-05 00:41 39.85636 -104.68396 5364 ft 19 kts 180°
2026-05-05 00:41 39.85503 -104.68396 5365 ft 19 kts 180°
2026-05-05 00:41 39.85374 -104.68397 5364 ft 18 kts 180°
2026-05-05 00:41 39.85250 -104.68397 5364 ft 18 kts 180°
2026-05-05 00:42 39.85165 -104.68397 5364 ft 0 kts 180°
2026-05-05 00:42 39.85153 -104.68410 5365 ft 6 kts 235°
2026-05-05 00:42 39.85182 -104.68507 5365 ft 20 kts 304°
2026-05-05 00:43 39.85198 -104.68742 5365 ft 34 kts 268°
2026-05-05 00:43 39.85198 -104.69081 5365 ft 37 kts 269°
2026-05-05 00:43 39.85198 -104.69412 5364 ft 36 kts 272°
2026-05-05 00:43 39.85299 -104.69655 5364 ft 25 kts 355°
2026-05-05 00:44 39.85312 -104.69656 5363 ft 0 kts 357°
2026-05-05 00:44 39.85337 -104.69657 5364 ft 23 kts 357°
2026-05-05 00:45 39.85766 -104.69662 5366 ft 98 kts
2026-05-05 00:45 39.86673 -104.69647 5364 ft 161 kts 359°
2026-05-05 00:45 39.87898 -104.69656 5856 ft 182 kts 357°
2026-05-05 00:45 39.89239 -104.69624 6601 ft 198 kts
2026-05-05 00:46 39.90607 -104.69543 7384 ft 198 kts
2026-05-05 00:46 39.92029 -104.69494 7784 ft 215 kts
2026-05-05 00:46 39.93609 -104.69461 7995 ft 237 kts
2026-05-05 00:46 39.95291 -104.69442 8415 ft 248 kts
2026-05-05 00:47 39.97055 -104.69417 8825 ft 256 kts
2026-05-05 00:47 39.98869 -104.69386 9295 ft 262 kts
2026-05-05 00:47 40.00696 -104.69349 9792 ft 266 kts
2026-05-05 00:47 40.02549 -104.69310 9935 ft 269 kts
2026-05-05 00:48 40.04415 -104.69536 10000 ft 272 kts 342°
2026-05-05 00:48 40.06174 -104.70491 10447 ft 276 kts 338°
2026-05-05 00:48 40.07931 -104.71473 10831 ft 276 kts 337°
2026-05-05 00:48 40.09686 -104.72428 11076 ft 274 kts 338°
2026-05-05 00:49 40.11485 -104.73354 11504 ft 281 kts 338°
2026-05-05 00:49 40.13352 -104.74303 11774 ft 298 kts 337°
2026-05-05 00:49 40.15339 -104.75314 11940 ft 323 kts 337°
2026-05-05 00:49 40.17513 -104.76423 12157 ft 347 kts 338°
2026-05-05 00:50 40.19818 -104.77601 12637 ft 359 kts 337°
2026-05-05 00:50 40.22146 -104.78791 13518 ft 360 kts 337°
2026-05-05 00:50 40.24490 -104.79989 14233 ft 364 kts 336°
2026-05-05 00:50 40.26863 -104.81204 14906 ft 368 kts 337°
2026-05-05 00:51 40.29258 -104.82433 15630 ft 371 kts 336°
2026-05-05 00:51 40.31667 -104.83671 16351 ft 374 kts 336°
2026-05-05 00:51 40.34108 -104.84924 17037 ft 378 kts 336°
2026-05-05 00:51 40.36567 -104.86186 17712 ft 382 kts 336°
2026-05-05 00:52 40.39050 -104.87459 18385 ft 384 kts 335°
2026-05-05 00:52 40.41548 -104.88740 19042 ft 386 kts 335°
2026-05-05 00:52 40.44059 -104.90031 19622 ft 389 kts 335°
2026-05-05 00:52 40.46591 -104.91335 20186 ft 393 kts 335°
2026-05-05 00:53 40.49141 -104.92648 20742 ft 396 kts 335°
2026-05-05 00:53 40.51719 -104.93974 21272 ft 400 kts 335°
2026-05-05 00:53 40.54317 -104.95316 21794 ft 403 kts 335°
2026-05-05 00:53 40.56942 -104.96671 22329 ft 407 kts 335°
2026-05-05 00:54 40.59580 -104.98035 22944 ft 407 kts 334°
2026-05-05 00:54 40.62218 -104.99398 23593 ft 407 kts 334°
2026-05-05 00:54 40.64762 -105.00715 24013 ft 411 kts 334°
2026-05-05 00:54 40.67440 -105.02103 24393 ft 415 kts 334°
2026-05-05 00:55 40.70134 -105.03499 24809 ft 418 kts 334°
2026-05-05 00:55 40.72844 -105.04905 25235 ft 420 kts 334°
2026-05-05 00:55 40.75528 -105.06429 25636 ft 418 kts 326°
2026-05-05 00:55 40.77787 -105.08785 26009 ft 412 kts 309°
2026-05-05 00:56 40.79594 -105.11693 26594 ft 408 kts 304°
2026-05-05 00:56 40.81338 -105.14649 27030 ft 409 kts 304°
2026-05-05 00:56 40.83091 -105.17646 27326 ft 414 kts 304°
2026-05-05 00:56 40.84856 -105.20657 27679 ft 417 kts 304°
2026-05-05 00:57 40.86644 -105.23689 28091 ft 419 kts 304°
2026-05-05 00:57 40.88421 -105.26687 28488 ft 420 kts 304°
2026-05-05 00:57 40.90231 -105.29731 28842 ft 422 kts 304°
2026-05-05 00:57 40.92050 -105.32786 29231 ft 423 kts 304°
2026-05-05 00:58 40.93875 -105.35850 29584 ft 425 kts 304°
2026-05-05 00:58 40.95703 -105.38917 30028 ft 424 kts 304°
2026-05-05 00:58 40.97525 -105.41978 30513 ft 420 kts 304°
2026-05-05 00:58 40.99323 -105.44998 31094 ft 415 kts 303°
2026-05-05 00:59 41.01089 -105.47969 31670 ft 409 kts 303°
2026-05-05 00:59 41.02849 -105.50937 31872 ft 410 kts 303°
2026-05-05 00:59 41.04601 -105.53897 31895 ft 408 kts 303°
2026-05-05 01:00 41.08105 -105.59825 31922 ft 407 kts 303°
2026-05-05 01:00 41.11577 -105.65709 31927 ft 408 kts 303°
2026-05-05 01:01 41.15072 -105.71643 31957 ft 409 kts 303°
2026-05-05 01:01 41.18584 -105.77616 31958 ft 411 kts 303°
2026-05-05 01:02 41.22103 -105.83610 31937 ft 412 kts 303°
2026-05-05 01:02 41.25633 -105.89637 31930 ft 413 kts 303°
2026-05-05 01:03 41.29154 -105.95658 31882 ft 414 kts 303°
2026-05-05 01:03 41.32621 -106.01602 31849 ft 415 kts 303°
2026-05-05 01:04 41.36140 -106.07643 31850 ft 415 kts 303°
2026-05-05 01:04 41.41427 -106.16746 31853 ft 413 kts 303°
2026-05-05 01:05 41.44943 -106.22812 31833 ft 413 kts 303°
2026-05-05 01:05 41.48460 -106.28889 31836 ft 414 kts 304°
2026-05-05 01:06 41.51986 -106.34978 31804 ft 415 kts 304°
2026-05-05 01:06 41.55526 -106.41084 31801 ft 416 kts 304°
2026-05-05 01:07 41.59072 -106.47195 31805 ft 416 kts 304°
2026-05-05 01:07 41.62620 -106.53312 31782 ft 417 kts 304°
2026-05-05 01:08 41.66186 -106.59427 31778 ft 418 kts 306°
2026-05-05 01:08 41.70134 -106.65112 31760 ft 420 kts 310°
2026-05-05 01:09 41.74265 -106.70669 31742 ft 421 kts 311°
2026-05-05 01:09 41.78361 -106.76251 31771 ft 420 kts 310°
2026-05-05 01:10 41.82421 -106.81880 31753 ft 420 kts 310°
2026-05-05 01:10 41.86475 -106.87550 31816 ft 421 kts 310°
2026-05-05 01:11 41.90523 -106.93233 31833 ft 422 kts 310°
2026-05-05 01:11 41.94574 -106.98931 31845 ft 422 kts 310°
2026-05-05 01:12 41.98565 -107.04556 31846 ft 423 kts 310°
2026-05-05 01:12 42.02617 -107.10274 31822 ft 424 kts 310°
2026-05-05 01:13 42.06683 -107.16024 31815 ft 425 kts 310°
2026-05-05 01:13 42.10763 -107.21805 31786 ft 426 kts 310°
2026-05-05 01:14 42.14845 -107.27601 31773 ft 427 kts 311°
2026-05-05 01:14 42.18901 -107.33372 31766 ft 427 kts 311°
2026-05-05 01:15 42.22984 -107.39193 31761 ft 427 kts 311°
2026-05-05 01:15 42.27061 -107.45016 31773 ft 427 kts 310°
2026-05-05 01:16 42.31132 -107.50843 31770 ft 426 kts 311°
2026-05-05 01:16 42.34516 -107.55696 31777 ft 426 kts 311°
2026-05-05 01:17 42.38578 -107.61532 31777 ft 426 kts 311°
2026-05-05 01:17 42.42638 -107.67376 31780 ft 426 kts 311°
2026-05-05 01:18 42.46688 -107.73219 31798 ft 426 kts 311°
2026-05-05 01:18 42.50738 -107.79072 31773 ft 425 kts 311°
2026-05-05 01:19 42.54776 -107.84920 31787 ft 424 kts 311°
2026-05-05 01:19 42.58802 -107.90764 31786 ft 423 kts 311°
2026-05-05 01:20 42.62792 -107.96566 31798 ft 423 kts 311°
2026-05-05 01:20 42.66729 -108.02302 31793 ft 422 kts 311°
2026-05-05 01:21 42.70728 -108.08142 31806 ft 421 kts 311°
2026-05-05 01:21 42.74713 -108.13972 31812 ft 421 kts 311°
2026-05-05 01:22 42.78694 -108.19809 31822 ft 420 kts 311°
2026-05-05 01:22 42.82668 -108.25646 31826 ft 420 kts 311°
2026-05-05 01:23 42.86637 -108.31487 31839 ft 419 kts 311°
2026-05-05 01:23 42.90594 -108.37324 31890 ft 419 kts 311°
2026-05-05 01:24 42.94545 -108.43164 31905 ft 418 kts 311°
2026-05-05 01:24 42.98492 -108.49011 31914 ft 419 kts 311°
2026-05-05 01:25 43.02433 -108.54858 31920 ft 420 kts 311°
2026-05-05 01:25 43.06396 -108.60752 31910 ft 421 kts 311°
2026-05-05 01:26 43.10363 -108.66662 31902 ft 422 kts 311°
2026-05-05 01:26 43.14302 -108.72544 31878 ft 422 kts 311°
2026-05-05 01:27 43.18260 -108.78467 31808 ft 421 kts 312°
2026-05-05 01:27 43.22215 -108.84398 31837 ft 421 kts 311°
2026-05-05 01:28 43.26165 -108.90332 31852 ft 421 kts 311°
2026-05-05 01:28 43.30118 -108.96283 31850 ft 422 kts 311°
2026-05-05 01:29 43.34000 -109.02140 31863 ft 423 kts 311°
2026-05-05 01:29 43.37958 -109.08125 31874 ft 423 kts 311°
2026-05-05 01:30 43.41913 -109.14117 31873 ft 423 kts 311°
2026-05-05 01:30 43.45870 -109.20125 31887 ft 423 kts 312°
2026-05-05 01:31 43.49807 -109.26114 31891 ft 425 kts 312°
2026-05-05 01:31 43.53803 -109.32206 31915 ft 427 kts 312°
2026-05-05 01:32 43.57779 -109.38282 31901 ft 427 kts 312°
2026-05-05 01:32 43.61724 -109.44321 31890 ft 425 kts 312°
2026-05-05 01:33 43.65671 -109.50378 31903 ft 424 kts 312°
2026-05-05 01:33 43.69604 -109.56429 31923 ft 422 kts 312°
2026-05-05 01:34 43.73515 -109.62452 31910 ft 418 kts 312°
2026-05-05 01:34 43.77387 -109.68429 31892 ft 416 kts 312°
2026-05-05 01:35 43.81229 -109.74381 31884 ft 413 kts 312°
2026-05-05 01:35 43.85059 -109.80304 31889 ft 413 kts 312°
2026-05-05 01:36 43.88913 -109.86098 31892 ft 411 kts 312°
2026-05-05 01:36 43.92676 -109.92084 31885 ft 412 kts 311°
2026-05-05 01:37 43.96475 -109.98092 31897 ft 414 kts 311°
2026-05-05 01:37 44.00237 -110.03991 31901 ft 416 kts 311°
2026-05-05 01:38 44.04088 -110.10013 31886 ft 418 kts 311°
2026-05-05 01:38 44.08383 -110.15391 31886 ft 418 kts 330°
2026-05-05 01:39 44.13533 -110.19144 31898 ft 418 kts 331°
2026-05-05 01:39 44.18642 -110.22888 31899 ft 417 kts 330°
2026-05-05 01:40 44.23753 -110.26689 31889 ft 415 kts 330°
2026-05-05 01:40 44.28829 -110.30493 31899 ft 413 kts 330°
2026-05-05 01:41 44.33880 -110.34292 31915 ft 411 kts 330°
2026-05-05 01:41 44.38903 -110.38077 31901 ft 407 kts 330°
2026-05-05 01:42 44.41350 -110.39922 31824 ft 392 kts 330°
2026-05-05 01:42 44.43711 -110.41702 31744 ft 379 kts 329°
2026-05-05 01:42 44.45997 -110.43429 31623 ft 368 kts 329°
2026-05-05 01:42 44.48238 -110.45124 31308 ft 364 kts 329°
2026-05-05 01:43 44.50464 -110.46811 30808 ft 364 kts 329°
2026-05-05 01:43 44.52686 -110.48497 30405 ft 362 kts 329°
2026-05-05 01:43 44.54898 -110.50176 30021 ft 360 kts 329°
2026-05-05 01:43 44.57093 -110.51844 29558 ft 358 kts 329°
2026-05-05 01:44 44.59278 -110.53505 29083 ft 356 kts 329°
2026-05-05 01:44 44.61419 -110.55133 28634 ft 354 kts 329°
2026-05-05 01:44 44.63578 -110.56776 28170 ft 352 kts 329°
2026-05-05 01:44 44.65724 -110.58411 27719 ft 350 kts 329°
2026-05-05 01:45 44.67861 -110.60041 27289 ft 348 kts 329°
2026-05-05 01:45 44.69980 -110.61657 26896 ft 345 kts 329°
2026-05-05 01:45 44.72084 -110.63264 26489 ft 343 kts 329°
2026-05-05 01:45 44.74183 -110.64869 26057 ft 342 kts 329°
2026-05-05 01:46 44.76270 -110.66466 25645 ft 341 kts 329°
2026-05-05 01:46 44.78353 -110.68061 25237 ft 340 kts 329°
2026-05-05 01:46 44.80428 -110.69651 24851 ft 339 kts 329°
2026-05-05 01:46 44.82494 -110.71235 24453 ft 337 kts 329°
2026-05-05 01:47 44.84550 -110.72814 24075 ft 336 kts 328°
2026-05-05 01:47 44.86605 -110.74392 23701 ft 335 kts 328°
2026-05-05 01:47 44.88645 -110.75961 23288 ft 334 kts 328°
2026-05-05 01:47 44.90678 -110.77525 22880 ft 332 kts 328°
2026-05-05 01:48 44.92708 -110.79088 22506 ft 329 kts 328°
2026-05-05 01:48 44.94710 -110.80631 22093 ft 327 kts 328°
2026-05-05 01:48 44.96706 -110.82171 21711 ft 325 kts 329°
2026-05-05 01:48 44.98684 -110.83698 21315 ft 323 kts 328°
2026-05-05 01:49 45.00650 -110.85218 20901 ft 322 kts 329°
2026-05-05 01:49 45.02610 -110.86735 20593 ft 320 kts 329°
2026-05-05 01:49 45.04529 -110.88220 20321 ft 316 kts 329°
2026-05-05 01:49 45.06450 -110.89708 19883 ft 314 kts 328°
2026-05-05 01:50 45.08361 -110.91189 19530 ft 313 kts 329°
2026-05-05 01:50 45.10270 -110.92671 19106 ft 313 kts 329°
2026-05-05 01:50 45.12154 -110.94155 18733 ft 309 kts 328°
2026-05-05 01:50 45.14025 -110.95626 18541 ft 304 kts 328°
2026-05-05 01:51 45.15815 -110.97154 18313 ft 299 kts 325°
2026-05-05 01:51 45.17553 -110.98749 17963 ft 296 kts 324°
2026-05-05 01:51 45.19209 -111.00288 17514 ft 296 kts 325°
2026-05-05 01:51 45.20930 -111.01875 17188 ft 294 kts 325°
2026-05-05 01:52 45.22635 -111.03439 16843 ft 289 kts 325°
2026-05-05 01:52 45.24323 -111.04988 16473 ft 288 kts 325°
2026-05-05 01:52 45.26005 -111.06515 16144 ft 286 kts 326°
2026-05-05 01:52 45.27674 -111.08031 15892 ft 283 kts 326°
2026-05-05 01:53 45.29329 -111.09540 15647 ft 283 kts 326°
2026-05-05 01:53 45.30984 -111.11056 15412 ft 283 kts 326°
2026-05-05 01:53 45.32644 -111.12566 15172 ft 284 kts 326°
2026-05-05 01:53 45.34268 -111.14153 15054 ft 279 kts 315°
2026-05-05 01:54 45.35427 -111.16311 15077 ft 273 kts 307°
2026-05-05 01:54 45.36701 -111.18339 15071 ft 277 kts 319°
2026-05-05 01:54 45.38274 -111.19955 15082 ft 283 kts 329°
2026-05-05 01:54 45.40093 -111.21292 14049 ft 311 kts 333°
2026-05-05 01:55 45.42053 -111.22534 14205 ft 291 kts 336°
2026-05-05 01:55 45.43823 -111.23404 15051 ft 254 kts 341°
2026-05-05 01:55 45.45570 -111.23961 14858 ft 265 kts 347°
2026-05-05 01:55 45.47428 -111.24369 14420 ft 274 kts 348°
2026-05-05 01:56 45.49337 -111.24791 13950 ft 280 kts 348°
2026-05-05 01:56 45.51242 -111.25240 13608 ft 280 kts 348°
2026-05-05 01:56 45.53163 -111.25691 13270 ft 280 kts 350°
2026-05-05 01:56 45.55099 -111.25539 12949 ft 283 kts 14°
2026-05-05 01:57 45.56820 -111.24221 12844 ft 282 kts 34°
2026-05-05 01:57 45.58157 -111.22148 12553 ft 289 kts 53°
2026-05-05 01:57 45.58953 -111.19505 12368 ft 289 kts 67°
2026-05-05 01:57 45.59563 -111.16815 12293 ft 281 kts 67°
2026-05-05 01:58 45.60190 -111.14192 11925 ft 277 kts 60°
2026-05-05 01:58 45.61377 -111.12133 11374 ft 268 kts 30°
2026-05-05 01:58 45.62986 -111.10823 10825 ft 265 kts 26°
2026-05-05 01:58 45.64598 -111.09562 10226 ft 263 kts 27°
2026-05-05 01:59 45.66211 -111.08347 9580 ft 261 kts 21°
2026-05-05 01:59 45.67932 -111.08024 9487 ft 236 kts 359°
2026-05-05 01:59 45.69469 -111.08420 9472 ft 214 kts 336°
2026-05-05 01:59 45.70526 -111.09727 9479 ft 196 kts 302°
2026-05-05 02:00 45.70874 -111.11572 9255 ft 190 kts 280°
2026-05-05 02:00 45.71034 -111.13465 9034 ft 191 kts 281°
2026-05-05 02:00 45.71074 -111.15367 8524 ft 203 kts 262°
2026-05-05 02:00 45.70523 -111.17247 7975 ft 213 kts 230°
2026-05-05 02:01 45.69297 -111.18348 7603 ft 206 kts 191°
2026-05-05 02:01 45.67898 -111.18221 7188 ft 201 kts 151°
2026-05-05 02:01 45.66978 -111.16983 7212 ft 175 kts 109°
2026-05-05 02:01 45.66711 -111.15311 7228 ft 175 kts 97°
2026-05-05 02:02 45.66635 -111.13592 7197 ft 172 kts 74°
2026-05-05 02:02 45.67264 -111.12195 7230 ft 170 kts 34°
2026-05-05 02:02 45.68406 -111.11741 7246 ft 181 kts
2026-05-05 02:02 45.69724 -111.11777 7177 ft 194 kts
2026-05-05 02:03 45.71091 -111.11790 6792 ft 194 kts
2026-05-05 02:03 45.71967 -111.11804 6520 ft 187 kts 360°
2026-05-05 02:03 45.73241 -111.11829 6120 ft 179 kts 359°
2026-05-05 02:03 45.74835 -111.12076 5715 ft 163 kts 334°
2026-05-05 02:04 45.75480 -111.12606 5428 ft 166 kts 332°
2026-05-05 02:04 45.76541 -111.13467 4626 ft 180 kts 324°
2026-05-05 02:04 45.77368 -111.14657 4489 ft 160 kts 319°
2026-05-05 02:04 45.78103 -111.15669 4456 ft 110 kts 314°
2026-05-05 02:05 45.78421 -111.16114 4447 ft 39 kts 316°
2026-05-05 02:05 45.78610 -111.16339 4449 ft 31 kts 318°
2026-05-05 02:05 45.78738 -111.16567 4448 ft 28 kts 299°
2026-05-05 02:05 45.78685 -111.16801 4443 ft 27 kts 209°
2026-05-05 02:06 45.78541 -111.16679 4444 ft 25 kts 135°
2026-05-05 02:06 45.78421 -111.16510 4444 ft 24 kts 135°
2026-05-05 02:06 45.78289 -111.16327 4446 ft 28 kts 136°
2026-05-05 02:06 45.78137 -111.16118 4449 ft 32 kts 137°
2026-05-05 02:07 45.77991 -111.16071 4452 ft 19 kts 223°
2026-05-05 02:07 45.77978 -111.16083 4453 ft 2 kts 194°
2026-05-05 02:07 45.77948 -111.16102 4454 ft 8 kts 219°
2026-05-05 02:07 45.77938 -111.16118 4454 ft 0 kts 231°